Simultaneous Nadir Overpasses (SNOs) Predictions

Prediction of SNOs between AURA and NPP Satellite Orbit:

Table of predicted SNOs for the next 14.0 days since TLE Epoch: 4/27/2012
Index Date (AURA) Time (AURA) AURA Lat,Lon Date (NPP) Time (NPP) NPP Lat,Lon Distance(km) Time Diff (sec)
1 04/27/2012 12:14:50 79.85,-104.16 04/27/2012 12:14:18 79.84,-104.31 3.22 32
2 04/27/2012 13:04:12 -80.03, 64.95 04/27/2012 13:04:57 -80.03, 64.80 3.02 45
3 04/30/2012 04:31:15 79.94, 12.46 04/30/2012 04:31:08 79.94, 12.40 1.07 7
4 04/30/2012 05:20:36 -80.12,-178.40 04/30/2012 05:21:46 -80.12,-178.44 0.91 70
5 05/02/2012 19:58:18 -79.86, -39.97 05/02/2012 19:57:18 -79.86, -39.90 1.26 60
6 05/02/2012 20:47:39 80.03, 129.04 05/02/2012 20:47:57 80.03, 129.07 0.58 18
7 05/05/2012 12:14:43 -79.94, 76.57 05/05/2012 12:14:08 -79.95, 76.69 2.41 35
8 05/05/2012 13:04:04 80.10,-114.42 05/05/2012 13:04:47 80.11,-114.33 1.74 43
9 05/08/2012 04:31:08 -80.02,-166.93 05/08/2012 04:30:58 -80.02,-166.77 3.14 10
10 05/08/2012 05:20:29 80.17, 2.09 05/08/2012 05:21:37 80.18, 2.22 2.41 68
11 05/10/2012 19:58:11 79.90, 140.34 05/10/2012 19:57:09 79.90, 140.49 2.99 62




NCC Satellite Simultaneous Nadir Overpasses (SNOs) Prediction Service
